Flag for Austria Weather past 2 weeks in Horn, Lower Austria, Austria

Now
48 °F

Cool.


Feels Like: N/A
Forecast: 40 / 51 °F
Wind: N/A

Location: Retz

Current Time: Oct 22, 2014 at 7:14:16 AM

Latest Report: Oct 22, 2014 at 6:00 AM


Visibility: N/A

Pressure: 29.70 "Hg

Humidity: 69%

Dew point: 38 °F

Location of HornLocation

Historic Weather in Horn — Graph

°F

Horn temperature yesterday

Maximum temperature yesterday: 64 °F (at 3:00 PM)
Minimum temperature yesterday: 53 °F (at 8:00 AM)
Average temperature yesterday: 57 °F

Past Weeks' High & Low Weather Summary

 TemperatureHumidityPressure
High70 °F (Oct 20, 2:00 PM)100% (Oct 13, 9:00 AM)30.30 "Hg (Oct 13, 9:00 AM)
Low47 °F (Oct 20, 3:00 AM)57% (Oct 16, 3:00 PM)29.57 "Hg (Oct 22, 1:00 AM)
Average57 °F88%29.95 "Hg
* Reported Oct 7 6:00 AM — Oct 22 6:00 AM, Horn, Weather by CustomWeather, © 2014

Note: Actual official high and low records may vary slightly from our data, if they occured in-between our weather recording intervals... More about our weather records

Advertising

Horn weather history for previous 24 hours

 ConditionsComfort  
Time TempWeatherWind HumidityBarometerVisibility
6:00 AM
Oct 22
48 °FCool.N/A69%29.70 "HgN/A
5:00 AM49 °FCool.10 mph65%29.72 "HgN/A
4:00 AM49 °FCool.12 mph67%29.68 "HgN/A
3:00 AM50 °FCool.12 mph75%29.67 "HgN/A
2:00 AM51 °FSprinkles. Overcast.12 mphN/A29.65 "HgN/A
1:00 AM57 °FCool.7 mph81%29.57 "HgN/A
12:00 AM53 °FCool.3 mph94%29.59 "HgN/A
11:00 PM
Oct 21
53 °FCool.3 mph93%29.62 "HgN/A
10:00 PM53 °FCool.3 mph93%29.65 "HgN/A
9:00 PM54 °FCool.3 mph91%29.68 "HgN/A
8:00 PM55 °FOvercast.3 mph89%29.70 "Hg9 mi
7:00 PM56 °FCool.3 mph85%29.72 "HgN/A
6:00 PM58 °FCool.3 mph75%29.74 "HgN/A
5:00 PM62 °FCool.6 mph65%29.75 "HgN/A
4:00 PM62 °FCool.6 mph61%29.77 "HgN/A
3:00 PM64 °FMild.6 mph57%29.79 "HgN/A
2:00 PM62 °FScattered clouds.6 mph59%29.82 "Hg17 mi
1:00 PM61 °FCool.1 mph74%29.85 "HgN/A
12:00 PM59 °FCool.2 mph83%29.88 "HgN/A
11:00 AM59 °FCool.1 mph79%29.90 "HgN/A
10:00 AM57 °FCool.3 mph84%29.90 "HgN/A
9:00 AM54 °FCool.1 mph96%29.90 "HgN/A
8:00 AM53 °FOvercast.3 mph97%29.90 "Hg9 mi
7:00 AM53 °FPassing clouds.3 mph95%29.90 "Hg5 mi
Weather by CustomWeather, © 2014

See weather overviewHow to use our weather pages